Theta_e
296 297 297 296 297 299 300 304 300 304 306 312 315 317 319 322 325 324 325 327 331 333 336 345 354 358 359 356 359 356 358 358 360 365 367 368 366 368 368 370 370 372 372 370
293 297 296 293 295 296 297 299 300 302 304 314 315 318 320 321 325 325 328 329 330 333 336 340 345 357 360 359 360 360 360 359 362 366 367 367 366 367 369 369 370 371 370 369
289 293 294 290 294 295 297 299 299 297 304 312 312 314 317 321 327 328 329 330 334 336 339 342 343 354 357 360 361 362 363 363 364 367 367 368 367 367 368 369 370 371 370 370
289 291 283 295 300 299 298 300 301 302 304 308 311 315 318 322 326 329 331 333 335 337 338 340 343 345 355 357 361 363 362 366 365 368 367 369 369 368 369 369 369 370 370 371
286 287 291 294 297 298 296 298 306 304 305 306 311 314 315 321 323 330 332 335 338 340 340 343 343 344 354 356 361 361 363 365 366 367 368 370 368 368 370 369 369 370 372 372
289 285 282 293 300 302 302 293 306 307 306 306 310 305 312 322 330 331 335 339 340 344 346 345 346 346 349 355 361 360 364 364 367 369 369 369 370 371 371 371 369 363 367 371
289 287 290 298 301 301 291 294 304 309 311 310 310 314 321 325 327 329 332 338 344 347 351 352 350 349 351 353 355 363 362 365 369 369 370 372 373 373 372 369 366 369 369 371
290 286 284 302 300 293 301 301 301 310 312 315 316 318 319 320 322 325 328 337 343 348 354 356 354 359 357 357 361 369 366 366 368 370 366 365 372 372 373 371 370 371 368 367
291 291 301 302 301 304 306 299 299 304 311 312 311 313 314 317 320 322 323 327 336 340 342 344 354 356 355 369 367 370 367 367 368 369 368 369 369 370 365 370 360 361 358 356
292 294 294 297 301 303 304 301 302 306 308 309 310 311 312 314 316 317 321 322 324 329 330 329 334 341 354 361 368 365 365 367 367 367 366 369 364 364 360 358 358 355 356 354
289 292 293 296 299 300 300 302 303 308 308 309 310 308 310 311 312 316 318 320 322 323 322 322 329 331 337 336 353 362 363 361 364 361 362 363 363 361 360 363 352 358 354 354
287 293 291 294 298 302 305 305 306 307 306 308 308 308 310 311 313 316 318 320 320 322 322 321 323 324 327 330 334 354 357 358 357 358 359 358 358 356 314 322 313 314 314 335
293 297 296 296 299 303 303 305 305 306 307 308 311 311 311 313 315 315 318 318 319 319 320 321 320 321 324 325 330 337 348 360 357 352 358 358 359 357 355 335 314 310 312 313
300 298 295 295 294 300 302 303 304 304 304 305 306 310 312 312 312 313 314 317 319 316 317 319 320 320 325 326 327 329 337 323 354 358 358 356 358 358 357 355 353 354 321 322
300 300 297 298 298 298 300 301 300 300 301 302 304 305 308 308 307 309 312 314 313 313 313 315 315 316 322 325 326 330 328 328 332 345 366 353 359 358 354 353 351 349 353 324
301 299 299 298 296 297 298 298 297 298 300 301 302 302 304 305 305 306 307 310 309 308 310 311 314 317 321 325 326 333 335 324 328 339 345 348 353 347 347 346 345 344 347 349
298 298 298 297 297 297 297 299 298 298 299 300 300 302 302 303 302 303 304 306 307 308 310 311 312 316 317 320 321 331 336 338 329 337 336 334 340 346 348 348 343 345 346 346
303 302 301 300 300 299 298 300 300 299 299 300 300 301 300 301 300 302 303 305 306 307 307 310 311 314 314 313 317 317 324 324 330 338 341 342 336 339 342 340 342 342 345 344
304 303 303 302 302 301 300 300 301 299 299 300 299 298 300 300 302 302 303 303 301 301 304 308 309 309 308 310 313 320 321 324 327 330 330 325 335 336 340 340 339 342 343 345
304 304 305 304 304 303 301 301 303 302 300 299 299 298 298 299 301 302 302 300 302 302 305 305 306 305 305 305 308 310 313 315 317 318 317 325 322 326 329 320 325 328 325 328
304 305 303 304 302 304 303 303 302 302 302 301 299 299 299 300 300 300 300 299 303 305 304 304 303 303 303 303 302 303 303 302 303 305 307 309 309 306 310 311 312 309 309 309
303 304 305 303 302 302 304 304 304 303 303 302 303 302 302 300 300 300 302 301 304 303 303 303 303 304 303 303 300 298 297 297 296 297 297 298 298 297 297 297 297 298 297 298
304 304 304 305 302 302 304 304 304 303 303 302 302 302 301 302 300 299 297 304 302 302 302 303 303 304 303 303 301 300 299 297 296 295 295 294 294 294 294 294 294 295 295 294
304 304 303 304 304 303 302 303 304 305 303 304 303 303 303 300 301 304 305 303 302 303 303 302 302 304 303 301 301 300 300 300 299 297 296 294 294 294 293 293 293 293 293 293
305 305 304 303 303 302 303 304 303 304 304 303 304 304 304 303 301 302 303 303 301 302 303 299 302 303 304 303 301 299 299 298 298 299 298 297 295 294 294 294 293 293 293 293
305 303 302 304 302 302 302 302 301 302 302 303 302 303 303 303 304 303 304 303 303 302 303 302 302 303 302 302 303 303 302 301 299 298 298 299 298 297 294 293 293 293 293 293
304 295 303 303 302 302 301 302 301 300 301 302 302 304 305 304 304 304 302 303 303 303 303 303 302 301 301 301 301 302 303 302 298 302 301 299 299 298 297 297 297 295 294 294
Wind_Speed
19 16 15 16 9 13 20 20 17 17 20 20 11 10 10 3 6 5 2 5 9 12 14 17 20 19 20 21 20 22 22 22 22 21 20 19 19 18 17 16 15 14 14 14
18 21 14 17 16 17 18 20 20 22 23 24 18 18 16 3 8 3 7 6 5 11 16 16 17 18 19 20 20 20 21 22 19 19 20 20 19 19 18 17 16 16 15 15
17 18 19 21 22 21 21 21 21 23 23 22 19 18 18 5 4 9 10 9 8 10 9 11 16 16 19 20 18 19 18 19 19 19 20 20 19 19 19 18 17 16 16 16
10 13 17 13 16 18 15 17 24 25 24 26 24 22 26 17 3 10 12 11 10 10 11 12 14 17 17 21 20 19 20 18 20 19 20 19 19 19 18 17 17 16 16 16
8 14 15 19 10 6 6 12 19 19 21 25 27 23 26 16 18 9 13 13 12 12 12 13 15 14 15 18 21 20 20 21 21 20 20 19 20 20 17 16 16 16 15 16
12 15 20 17 13 3 6 15 18 22 23 19 23 19 14 14 9 9 12 12 14 13 13 15 15 18 16 19 18 22 22 22 19 18 19 20 19 18 16 15 16 15 16 15
15 14 12 16 11 4 10 4 21 25 14 10 12 14 12 7 9 9 11 13 11 12 15 16 15 17 17 19 22 20 18 17 17 18 18 17 16 15 16 16 15 15 15 14
15 20 20 8 4 10 7 7 17 22 16 13 10 8 7 7 8 9 11 10 9 8 11 18 14 14 15 16 15 14 16 17 17 17 16 15 16 15 15 14 14 13 13 12
6 6 8 7 11 16 10 8 17 24 14 14 6 2 7 6 8 8 10 11 10 10 11 16 19 5 12 9 14 14 15 15 15 16 16 14 16 15 14 14 14 14 13 14
7 4 14 20 21 16 19 12 14 19 10 11 7 8 4 6 7 8 9 10 11 10 12 15 16 16 15 5 10 13 15 15 15 16 15 14 14 14 14 14 14 13 13 13
5 8 15 13 12 15 21 14 21 7 6 5 7 5 6 6 6 8 9 10 11 11 12 13 13 14 16 15 7 13 14 14 15 15 15 15 14 14 14 14 11 14 12 13
3 8 7 9 16 20 6 7 3 2 3 4 4 4 5 5 6 7 7 9 10 12 13 13 13 14 16 16 13 6 10 12 14 14 15 15 14 9 10 9 11 10 7 1
8 7 11 14 14 17 12 11 10 10 10 6 7 4 3 3 7 8 10 9 9 11 13 13 13 15 15 15 13 10 5 13 12 13 14 14 13 13 12 4 7 11 11 10
8 13 10 16 12 16 13 12 9 10 10 10 10 9 8 9 9 10 10 10 9 11 11 11 12 13 14 14 13 11 11 14 3 5 9 13 12 12 11 11 11 9 9 9
10 9 8 8 11 12 13 10 10 11 10 11 11 10 10 10 9 11 11 13 12 12 12 12 13 14 14 13 13 8 8 9 9 8 2 3 4 9 6 7 6 5 8 4
12 12 13 13 13 12 12 13 13 13 12 10 9 10 10 9 10 10 11 12 12 12 12 13 12 11 11 11 12 8 3 5 5 7 6 5 6 8 8 7 7 8 4 2
10 13 14 13 14 12 13 12 12 11 10 10 11 10 10 10 9 10 11 10 10 11 11 11 11 9 10 12 13 6 4 4 4 5 6 5 7 3 8 6 4 4 7 5
9 8 11 11 12 13 13 13 13 13 11 11 11 11 11 12 11 11 10 10 10 11 13 12 13 12 12 13 11 11 5 3 3 2 5 4 4 6 5 8 7 2 1 5
8 8 10 11 11 12 12 12 13 13 11 10 10 12 11 12 10 10 10 12 13 13 15 14 17 15 13 17 14 7 11 11 7 4 8 6 4 5 4 7 11 6 5 9
7 7 6 10 10 9 9 8 12 12 9 10 12 12 11 12 11 11 11 14 12 9 14 16 14 14 15 17 19 11 11 9 8 9 11 11 13 13 13 14 14 14 14 13
5 6 6 6 7 8 8 8 9 12 11 7 7 8 8 8 11 11 9 9 15 14 15 19 15 12 11 13 13 11 11 10 10 12 11 11 12 12 12 11 11 11 12 12
5 6 8 6 9 10 11 9 12 9 11 9 8 6 8 10 9 10 14 10 5 11 12 11 11 18 14 18 11 11 11 12 10 11 12 12 12 11 11 12 12 11 11 10
8 7 6 8 6 7 10 8 10 11 9 10 10 8 10 9 8 7 7 9 9 9 10 11 14 17 21 13 12 13 13 14 12 11 10 10 10 10 10 10 9 9 8 8
6 7 5 5 4 6 6 4 5 10 9 9 9 7 5 8 7 7 8 5 2 7 11 7 7 13 17 11 11 12 12 13 12 11 10 12 10 9 9 8 9 8 8 9
4 7 5 7 6 3 3 5 4 7 10 8 7 7 7 7 7 5 5 7 3 3 11 2 8 3 11 12 11 10 9 10 11 11 12 11 10 9 8 8 9 8 8 8
3 3 5 4 5 5 6 6 6 7 4 6 6 4 4 6 5 6 8 9 9 7 11 11 11 10 11 11 9 10 10 10 10 10 10 10 10 9 8 8 7 7 7 7
5 4 5 4 5 5 8 7 6 7 3 6 4 5 5 5 4 3 6 8 7 10 9 10 11 11 11 11 11 11 9 10 8 9 9 8 7 7 8 8 7 6 6 6
Wind_Direction
267 278 283 294 278 233 256 264 271 254 243 261 249 224 219 326 300 273 195 299 260 228 222 188 184 189 192 202 199 199 196 200 199 197 200 197 195 194 196 201 200 206 209 211
267 274 246 255 246 251 255 256 267 275 278 279 325 323 320 224 322 329 313 276 268 250 244 216 200 187 189 198 201 200 194 198 196 193 196 197 196 194 195 199 201 202 208 210
256 251 246 240 239 240 245 248 252 250 254 271 280 281 293 301 2 307 293 288 292 294 267 239 213 191 197 195 201 197 204 195 195 189 194 197 196 193 195 198 198 204 205 211
267 255 254 258 244 241 263 276 238 246 257 260 262 262 271 283 221 285 292 296 289 273 267 259 234 210 195 193 198 203 201 197 194 192 195 194 193 195 195 195 201 203 206 209
246 254 249 255 251 20 4 276 293 282 266 234 258 271 265 278 280 251 277 281 274 270 270 273 271 225 190 202 192 203 200 202 195 196 192 194 197 195 194 197 200 206 208 210
257 244 249 250 85 65 292 262 269 260 254 231 234 249 263 299 346 298 283 286 286 284 275 254 239 255 203 191 199 200 203 200 194 195 194 199 197 193 191 196 204 207 211 213
230 252 258 278 92 323 253 302 337 323 321 226 248 273 314 344 320 317 301 288 300 288 269 250 238 226 244 189 207 200 204 195 192 198 197 199 196 195 193 197 205 208 211 211
236 246 245 4 279 251 341 325 325 305 321 316 288 21 339 351 332 340 327 319 329 324 333 332 213 220 222 210 188 186 195 192 192 194 196 192 196 195 197 196 203 202 211 214
279 260 5 311 298 306 302 292 287 294 305 320 332 12 13 8 2 11 353 346 12 9 9 12 3 260 211 173 171 176 186 189 191 188 192 196 189 192 193 195 206 211 206 219
315 348 344 319 300 294 268 253 272 272 299 310 299 353 33 4 23 36 13 1 10 18 26 24 16 12 8 177 175 172 188 188 188 186 188 202 184 192 201 199 202 210 214 215
278 310 292 265 273 274 258 247 259 250 288 308 324 9 332 341 29 28 33 29 25 23 29 19 16 16 16 6 307 192 189 191 188 187 187 195 195 195 201 210 204 206 213 212
308 309 322 315 320 310 165 193 148 170 84 25 9 337 335 6 26 41 36 32 32 31 31 28 18 12 8 4 1 295 197 194 191 189 181 193 193 166 52 120 121 114 93 62
4 22 18 355 337 351 21 41 48 56 48 29 46 3 348 55 28 23 26 32 32 28 26 22 24 17 4 354 352 4 328 206 191 208 175 195 188 184 184 155 169 168 164 162
32 5 11 26 3 358 5 23 36 50 40 35 19 13 23 41 32 17 7 8 39 28 24 15 21 12 359 355 354 359 350 17 305 231 178 195 185 188 181 179 196 203 228 222
74 74 57 29 17 17 13 8 41 48 37 33 30 24 37 35 26 16 2 7 28 30 21 15 13 1 352 352 349 5 8 11 358 331 135 95 119 158 152 159 176 167 141 185
40 48 52 57 34 23 30 31 27 29 33 26 25 34 39 38 34 24 14 18 23 20 13 12 8 359 341 339 336 339 6 11 342 336 360 265 157 183 213 225 248 272 240 207
44 20 36 37 59 38 30 44 36 30 17 25 27 24 34 40 42 38 26 22 25 25 20 16 3 2 358 4 339 296 264 200 198 326 312 305 347 184 203 194 230 231 216 184
56 46 38 39 45 48 39 40 54 42 23 27 17 27 35 38 34 28 30 22 24 28 24 16 15 5 26 6 346 297 327 3 279 172 230 316 354 264 87 9 279 210 21 37
37 42 27 36 37 60 44 45 50 52 38 41 27 32 26 26 27 33 35 33 26 16 16 13 22 22 22 13 351 9 25 338 356 12 20 341 254 298 140 167 260 285 285 154
17 35 30 28 30 26 78 60 53 73 68 47 41 33 23 25 22 25 32 41 28 15 22 20 30 31 28 25 23 22 22 3 22 24 20 15 18 26 27 22 18 25 22 26
3 24 34 48 11 25 59 72 62 61 57 90 73 61 38 32 36 32 36 38 23 21 35 35 35 37 40 41 42 42 39 28 31 35 28 29 34 30 29 24 26 27 26 26
54 15 30 7 40 16 26 81 95 67 52 53 58 92 85 60 48 41 45 44 12 25 39 39 40 50 51 51 52 54 53 53 44 47 43 41 37 34 37 33 30 29 34 35
20 56 14 9 36 42 29 33 66 95 68 57 52 56 61 81 82 63 63 58 54 34 52 48 28 49 44 43 50 49 48 51 48 49 48 51 51 47 44 42 40 41 41 45
357 7 13 339 17 40 32 14 70 107 112 79 69 45 75 80 84 84 119 139 176 77 60 40 54 75 66 54 37 35 45 54 57 59 60 59 61 58 56 56 56 51 48 48
320 3 12 347 319 43 354 24 135 92 101 106 91 64 73 55 57 81 98 97 209 47 62 112 257 6 70 81 77 64 57 48 44 60 58 56 56 58 59 59 58 52 50 48
265 276 35 25 332 342 1 16 23 68 79 65 109 81 68 85 66 45 55 21 40 61 69 59 32 48 55 42 70 84 81 89 71 60 54 56 65 65 65 59 55 61 66 65
209 322 113 319 320 30 20 6 346 83 44 71 58 86 98 109 90 43 59 46 29 30 40 70 53 46 48 45 50 42 55 87 56 95 97 80 68 63 62 65 64 61 56 63